RADUGA 17 [-]

Last updated on Wed Jun 28 2023 00:02:57 GMT+0000 (Coordinated Universal Time)

1 16250U 85107A 23177.57829885 -.00000131 00000+0 00000+0 0 9991 2 16250 11.4585 325.9523 0015567 188.0101 129.9632 1.00192707140916
UTC large
Height (km)
Speed (km/s)
/
Latitude / Longitude
Inclination (degrees)
Orbital Period (minutes)
Azimuth
Elevation
Range (km)
Doppler Factor

Next 0 passes for location: London (51.5072 / 0.1276)

Sorry there are no passes over London.
RADUGA 17 [-]